| time (UTC) | temp F | wind direction | speed knots | gust knots | rain 1hr in | rain 24hr in | rain mn in | humidity % | barometer mb |
| 20260906164611 | 94 | 195 | 3.5 | 8.7 | 0.00 | 0.01 | 0.00 | 49 | 1017.3 |
| 20260906163107 | 94 | 132 | 3.5 | 7.0 | 0.00 | 0.01 | 0.00 | 50 | 1017.4 |
| 20260906161604 | 93 | 295 | 2.6 | 6.1 | 0.00 | 0.01 | 0.00 | 51 | 1017.4 |
| 20260906160106 | 92 | 279 | 1.7 | 6.1 | 0.00 | 0.01 | 0.00 | 53 | 1017.5 |
| 20260906154609 | 91 | 271 | 2.6 | 5.2 | 0.00 | 0.01 | 0.00 | 55 | 1017.3 |
| 20260906153104 | 90 | 57 | 2.6 | 9.6 | 0.00 | 0.01 | 0.00 | 57 | 1017.3 |
| 20260906151606 | 89 | 274 | 4.3 | 8.7 | 0.00 | 0.01 | 0.00 | 59 | 1017.2 |
| 20260906150110 | 88 | 217 | 5.2 | 8.7 | 0.00 | 0.01 | 0.00 | 60 | 1017.2 |
| 20260906144605 | 87 | 274 | 6.1 | 9.6 | 0.00 | 0.01 | 0.00 | 62 | 1017.1 |
| 20260906143112 | 86 | 272 | 6.1 | 7.0 | 0.00 | 0.01 | 0.00 | 64 | 1017.1 |
| 20260906141604 | 0 | 0.0 | 0.0 | 0.00 | 0.01 | 0.00 | 1017.1 | ||
| 20260906134606 | 0 | 0.0 | 0.0 | 0.00 | 0.01 | 0.00 | 1017.0 | ||
| 20260906133112 | 0 | 0.0 | 0.0 | 0.00 | 0.01 | 0.00 | 1016.9 | ||
| 20260906131605 | 0 | 0.0 | 0.0 | 0.00 | 0.01 | 0.00 | 1016.8 | ||
| 20260906124606 | 0 | 0.0 | 0.0 | 0.00 | 0.01 | 0.00 | 1016.7 | ||
| 20260906123114 | 0 | 0.0 | 0.0 | 0.00 | 0.01 | 0.00 | 1016.6 | ||
| 20260906121602 | 0 | 0.0 | 0.0 | 0.00 | 0.01 | 0.00 | 1016.3 | ||
| 20260906120145 | 0 | 0.0 | 0.0 | 0.00 | 0.01 | 0.00 | 1016.3 | ||
| 20260906114634 | 0 | 0.0 | 0.0 | 0.00 | 0.01 | 0.00 | 1016.1 | ||
| 20260906113103 | 0 | 0.0 | 0.0 | 0.00 | 0.01 | 0.00 | 1015.9 | ||
| 20260906111617 | 0 | 94 | 0.9 | 2.6 | 0.00 | 0.01 | 0.00 | 81 | 1015.8 |
| 20260906110104 | 74 | 0 | 0.0 | 0.0 | 0.00 | 0.01 | 0.00 | 80 | 1015.8 |
| 20260906104603 | 74 | 0 | 0.0 | 0.0 | 0.00 | 0.01 | 0.00 | 79 | 1015.7 |
| 20260906103104 | 75 | 0 | 0.0 | 0.0 | 0.00 | 0.01 | 0.00 | 78 | 1015.7 |
| 20260906101600 | 76 | 0 | 0.0 | 0.0 | 0.00 | 0.01 | 0.00 | 76 | 1015.7 |
| 20260906100105 | 77 | 0 | 0.0 | 2.6 | 0.00 | 0.01 | 0.00 | 75 | 1015.6 |
| 20260906094604 | 77 | 0 | 0.0 | 1.7 | 0.00 | 0.01 | 0.00 | 74 | 1015.3 |
| 20260906093100 | 77 | 62 | 0.9 | 1.7 | 0.00 | 0.01 | 0.00 | 74 | 1015.3 |
| 20260906091603 | 77 | 59 | 0.9 | 1.7 | 0.00 | 0.01 | 0.00 | 72 | 1015.3 |
| 20260906090109 | 78 | 56 | 0.9 | 2.6 | 0.00 | 0.01 | 0.00 | 72 | 1015.2 |
| 20260906084603 | 79 | 49 | 0.9 | 4.3 | 0.00 | 0.01 | 0.00 | 69 | 1015.2 |
| 20260906083103 | 80 | 113 | 0.9 | 7.0 | 0.00 | 0.01 | 0.00 | 69 | 1015.2 |
| 20260906081605 | 79 | 223 | 2.6 | 5.2 | 0.00 | 0.01 | 0.00 | 69 | 1015.1 |
| 20260906080103 | 79 | 132 | 2.6 | 5.2 | 0.00 | 0.01 | 0.00 | 69 | 1015.1 |
| 20260906074603 | 79 | 257 | 1.7 | 4.3 | 0.00 | 0.01 | 0.00 | 69 | 1015.1 |
| 20260906073101 | 79 | 223 | 2.6 | 5.2 | 0.00 | 0.01 | 0.00 | 70 | 1015.2 |
| 20260906071600 | 79 | 231 | 1.7 | 4.3 | 0.00 | 0.01 | 0.00 | 70 | 1015.4 |
| 20260906070105 | 79 | 227 | 2.6 | 4.3 | 0.00 | 0.01 | 0.00 | 69 | 1015.6 |
| 20260906064556 | 79 | 224 | 2.6 | 3.5 | 0.00 | 0.01 | 0.00 | 68 | 1015.6 |
| 20260906063102 | 80 | 142 | 1.7 | 3.5 | 0.00 | 0.01 | 0.00 | 69 | 1015.8 |
| 20260906061612 | 80 | 124 | 1.7 | 2.6 | 0.00 | 0.01 | 0.00 | 68 | 1015.7 |
| 20260906060107 | 80 | 121 | 1.7 | 1.7 | 0.00 | 0.01 | 0.00 | 68 | 1015.7 |
| 20260906054637 | 80 | 115 | 0.9 | 1.7 | 0.00 | 0.01 | 0.00 | 68 | 1015.6 |
| 20260906053101 | 80 | 122 | 1.7 | 2.6 | 0.00 | 0.01 | 0.00 | 68 | 1015.7 |
| 20260906051601 | 80 | 121 | 1.7 | 2.6 | 0.00 | 0.01 | 0.00 | 67 | 1015.7 |
| 20260906050109 | 81 | 130 | 2.6 | 3.5 | 0.00 | 0.01 | 0.00 | 66 | 1015.7 |
| 20260906044603 | 82 | 185 | 1.7 | 3.5 | 0.00 | 0.01 | 0.01 | 65 | 1015.5 |
| 20260906043106 | 82 | 253 | 1.7 | 3.5 | 0.00 | 0.01 | 0.01 | 64 | 1015.8 |
| 20260906041604 | 82 | 330 | 1.7 | 3.5 | 0.00 | 0.01 | 0.01 | 63 | 1015.8 |
| 20260906040121 | 83 | 144 | 1.7 | 3.5 | 0.00 | 0.01 | 0.01 | 62 | 1015.6 |
| 20260906034602 | 83 | 244 | 1.7 | 5.2 | 0.00 | 0.01 | 0.01 | 62 | 1015.7 |
| 20260906033126 | 84 | 195 | 3.5 | 5.2 | 0.00 | 0.01 | 0.01 | 59 | 1015.4 |
| 20260906031618 | 85 | 294 | 1.7 | 6.1 | 0.00 | 0.01 | 0.01 | 58 | 1015.4 |
| 20260906030106 | 86 | 273 | 3.5 | 6.1 | 0.00 | 0.01 | 0.01 | 56 | 1015.3 |
| 20260906024608 | 85 | 72 | 2.6 | 3.5 | 0.00 | 0.01 | 0.01 | 57 | 1015.1 |
| 20260906023106 | 85 | 246 | 0.0 | 2.6 | 0.00 | 0.01 | 0.01 | 58 | 1015.0 |
| 20260906021615 | 85 | 54 | 1.7 | 2.6 | 0.00 | 0.01 | 0.01 | 57 | 1014.9 |
| 20260906020104 | 85 | 275 | 1.7 | 4.3 | 0.00 | 0.01 | 0.01 | 58 | 1014.5 |
| 20260906014603 | 85 | 264 | 1.7 | 5.2 | 0.00 | 0.01 | 0.01 | 56 | 1014.5 |
| 20260906013112 | 85 | 265 | 1.7 | 6.1 | 0.00 | 0.01 | 0.01 | 57 | 1014.4 |
| 20260906011607 | 85 | 283 | 2.6 | 3.5 | 0.00 | 0.01 | 0.01 | 57 | 1014.3 |
| 20260906010103 | 85 | 123 | 1.7 | 4.3 | 0.00 | 0.01 | 0.01 | 58 | 1014.4 |
| 20260906004605 | 86 | 254 | 2.6 | 8.7 | 0.00 | 0.01 | 0.01 | 56 | 1014.3 |
| 20260906003108 | 87 | 195 | 3.5 | 8.7 | 0.00 | 0.01 | 0.01 | 55 | 1014.6 |
| 20260906001604 | 87 | 224 | 6.1 | 13.0 | 0.00 | 0.01 | 0.01 | 56 | 1014.6 |
| 20260906000108 | 89 | 218 | 8.7 | 18.2 | 0.00 | 0.01 | 0.01 | 55 | 1014.7 |
| 20260905234607 | 92 | 79 | 0.0 | 0.9 | 0.01 | 0.01 | 0.01 | 54 | 1014.2 |
| 20260905233105 | 89 | 0 | 0.9 | 3.5 | 0.01 | 0.01 | 0.01 | 59 | 1014.0 |
| 20260905231607 | 88 | 100 | 3.5 | 8.7 | 0.01 | 0.01 | 0.01 | 57 | 1014.1 |
| 20260905230103 | 89 | 108 | 9.6 | 17.4 | 0.01 | 0.01 | 0.01 | 57 | 1014.3 |
| 20260905224613 | 96 | 177 | 4.3 | 8.7 | 0.00 | 0.00 | 0.00 | 43 | 1014.0 |
| 20260905223104 | 97 | 218 | 5.2 | 7.8 | 0.00 | 0.00 | 0.00 | 42 | 1013.7 |
| 20260905221606 | 97 | 202 | 5.2 | 12.2 | 0.00 | 0.00 | 0.00 | 41 | 1013.8 |
| 20260905214607 | 98 | 113 | 1.7 | 6.1 | 0.00 | 0.00 | 0.00 | 40 | 1013.9 |
| 20260905213115 | 98 | 234 | 3.5 | 7.8 | 0.00 | 0.00 | 0.00 | 41 | 1013.9 |
| 20260905211612 | 98 | 94 | 1.7 | 6.1 | 0.00 | 0.00 | 0.00 | 41 | 1014.2 |
| 20260905210108 | 98 | 149 | 3.5 | 9.6 | 0.00 | 0.00 | 0.00 | 40 | 1014.2 |
| 20260905204614 | 98 | 128 | 4.3 | 8.7 | 0.00 | 0.00 | 0.00 | 40 | 1014.5 |
| 20260905203126 | 99 | 194 | 2.6 | 8.7 | 0.00 | 0.00 | 0.00 | 40 | 1014.7 |
| 20260905201610 | 100 | 91 | 1.7 | 10.4 | 0.00 | 0.00 | 0.00 | 38 | 1014.9 |
| 20260905200120 | 98 | 112 | 2.6 | 7.8 | 0.00 | 0.00 | 0.00 | 39 | 1015.1 |
| 20260905194612 | 98 | 69 | 0.9 | 3.5 | 0.00 | 0.00 | 0.00 | 40 | 1015.3 |
| 20260905193101 | 98 | 167 | 3.5 | 7.0 | 0.00 | 0.00 | 0.00 | 40 | 1015.5 |
| 20260905191606 | 97 | 26 | 1.7 | 6.1 | 0.00 | 0.00 | 0.00 | 41 | 1015.7 |
| 20260905190106 | 96 | 81 | 1.7 | 8.7 | 0.00 | 0.00 | 0.00 | 45 | 1016.0 |
| 20260905184611 | 95 | 67 | 1.7 | 5.2 | 0.00 | 0.00 | 0.00 | 46 | 1016.1 |
| 20260905183106 | 94 | 145 | 4.3 | 11.3 | 0.00 | 0.00 | 0.00 | 47 | 1016.4 |
| 20260905181609 | 96 | 205 | 3.5 | 7.0 | 0.00 | 0.00 | 0.00 | 46 | 1016.5 |
| 20260905180106 | 95 | 69 | 5.2 | 10.4 | 0.00 | 0.00 | 0.00 | 45 | 1016.6 |
| 20260905174606 | 94 | 89 | 7.0 | 9.6 | 0.00 | 0.00 | 0.00 | 47 | 1016.8 |
| 20260905173106 | 95 | 61 | 1.7 | 7.8 | 0.00 | 0.00 | 0.00 | 48 | 1017.1 |
| 20260905171606 | 95 | 121 | 2.6 | 7.0 | 0.00 | 0.00 | 0.00 | 48 | 1017.3 |
| 20260905170123 | 93 | 97 | 4.3 | 9.6 | 0.00 | 0.00 | 0.00 | 50 | 1017.4 |